Regional Weather Roundup
Issued by NWS

Home | Current Version | Previous Version | Text Only | Print | Product List | Glossary On
Versions: 1 2 3 4 5 6 7 8 9 10 11 12 13 14 15 16 17 18 19 20 21 22 23 24 25 26 27 28 29 30 31 32 33 34 35 36 37 38 39 40 41 42 43 44 45 46 47 48 49 50
890
ASUS43 KDTX 012310
RWRMI
MICHIGAN HOURLY REGIONAL WEATHER ROUNDUP
NATIONAL WEATHER SERVICE DETROIT/PONTIAC MI
700 PM EDT SUN MAY 01 2016

NOTE: "FAIR" INDICATES FEW OR NO CLOUDS BELOW 12,000 FEET WITH NO
SIGNIFICANT WEATHER AND/OR OBSTRUCTION TO VISIBILITY.

MIZ047>049-052>055-059>063-066>070-074>076-081>083-020000-
SOUTHEAST LOWER MICHIGAN

CITY           SKY/WX    TMP DP  RH WIND       PRES   REMARKS
ADRIAN         CLOUDY    53  49  86 NE8       29.98S
ALMA           CLOUDY    48  40  72 NE10      30.06S
ANN ARBOR      CLOUDY    52  47  83 N12       29.99S
BAD AXE        CLOUDY    45  39  80 NE12G23   30.07R
CARO           CLOUDY    48  39  71 NE7       30.05S
DETROIT CITY   CLOUDY    50  44  80 N9        30.01R
DETROIT        CLOUDY    52  47  83 N10       29.99S
FLINT          CLOUDY    50  43  77 NE10      30.03S
GROSSE ILE     CLOUDY    54  48  82 N8        29.97S
HILLSDALE      CLOUDY    50  50  98 NE8       29.97F FOG
HOWELL         CLOUDY    48  46  91 NE8       30.01R

CITY           SKY/WX    TMP DP  RH WIND       PRES   REMARKS
JACKSON        CLOUDY    50  47  89 NE8       29.99S
LAMBERTVILLE   CLOUDY    54  50  87 E5        29.98S FOG
LANSING        CLOUDY    47  44  90 NE12      30.03R
LAPEER         CLOUDY    46  41  80 NE7       30.04R
MASON          CLOUDY    48  46  90 NE9       30.01R
MONROE         CLOUDY    54  49  84 N7        29.98S
MT. CLEMENS    CLOUDY    50  49  98 N10       30.00R
PONTIAC        CLOUDY    47  44  90 NE10      30.00S
PORT HOPE        N/A     43  39  86 NE12      30.05S
PORT HURON     CLOUDY    45  45 100 N7        30.02R
TRI CITIES     CLOUDY    49  38  65 NE12      30.08R
MIDLAND        CLOUDY    49  36  61 NE12      30.08R
TROY           CLOUDY    50  46  88 N7        30.02S
SAGINAW HB     CLOUDY    48  41  76 N9        30.06R
$$
MIZ043>046-050>051-056>058-064>065-071>073-077>080-020000-
SOUTHWEST LOWER MICHIGAN

CITY           SKY/WX    TMP DP  RH WIND       PRES   REMARKS
BATTLE CREEK   CLOUDY    50  46  86 NE13      30.00S
BENTON HARBOR  CLOUDY    54  47  77 VRB7      29.96F
BIG RAPIDS     CLOUDY    50  39  65 E7        30.05R
COLDWATER      CLOUDY    51  49  90 NE8       29.97F
FREMONT        CLOUDY    51  42  72 E12G17    30.03S
HOLLAND        CLOUDY    53  46  77 NE8       30.01S
GRAND RAPIDS   CLOUDY    51  44  77 NE18      30.03R
IONIA          CLOUDY    47  43  84 NE13G20   30.03R
KALAMAZOO      CLOUDY    51  46  83 NE7       29.99F
LUDINGTON      CLOUDY    52  43  70 E6        30.06R
MARSHALL       CLOUDY    50  47  92 NE6       29.99S
MOUNT PLEASANT CLOUDY    51  36  56 E10G17    30.06R
MUSKEGON       CLOUDY    54  43  66 E12       30.03R
SOUTH HAVEN    CLOUDY    52  48  85 E9        29.98F
$$
MIZ016>042-020000-
NORTHERN LOWER MICHIGAN

CITY           SKY/WX    TMP DP  RH WIND       PRES   REMARKS
ALPENA         CLOUDY    52  32  46 SE9       30.09S
BEAVER ISLAND  SUNNY     56  31  38 E7        30.10S
BELLAIRE       CLOUDY    56  35  44 E3        30.08S
CADILLAC       CLOUDY    50  38  62 E10       30.05S
CHARLEVOIX     MOSUNNY   57  32  39 NE13      30.11S
FRANKFORT      CLOUDY    55  40  58 NE6       30.07S
GAYLORD        CLOUDY    53  32  44 NE8       30.08R
GRAYLING       CLOUDY    52  34  50 NE14      30.08S
HARBOR SPRINGS CLOUDY    55  30  37 NE9       30.08F
HOUGHTON LAKE  CLOUDY    52  35  52 E13       30.07R
MANISTEE       CLOUDY    54  37  54 NE10G17   30.07S
OSCODA         CLOUDY    51  32  47 NE12G20   30.08R
PELLSTON       CLOUDY    55  31  39 SE8       30.09F
ROGERS CITY    CLOUDY    52  31  44 CALM      30.10S
TRAVERSE CITY  CLOUDY    51  39  63 NE7       30.07S
$$
MIZ007>008-015-020000-
EASTERN UPPER MICHIGAN

CITY           SKY/WX    TMP DP  RH WIND       PRES   REMARKS
KINROSS          N/A     55  28  35 N13       30.08S
MACKINAC ISLAN CLOUDY    54  31  42 S8        30.08S
NEWBERRY       PTSUNNY   57  32  38 NW7       30.09S
S. S. MARIE    CLOUDY    58  30  34 NW7       30.07F
MUNISING         N/A     44  37  76 N8        30.13F
$$
MIZ004>006-011>014-085-020000-
CENTRAL UPPER MICHIGAN

CITY           SKY/WX    TMP DP  RH WIND       PRES   REMARKS
MANISTIQUE     PTSUNNY   53  32  45 CALM      30.10S
ESCANABA       MOSUNNY   55  32  41 SE6       30.11S
MENOMINEE      SUNNY     54  36  50 E10       30.10S
SAWYER-GWINN   SUNNY     48  32  53 N13       30.13F
$$
MIZ001>003-009>011-084-020000-
WESTERN UPPER MICHIGAN

CITY           SKY/WX    TMP DP  RH WIND       PRES   REMARKS
IRON MOUNTAIN  CLOUDY    57  32  38 E9        30.08R
HOUGHTON       SUNNY     51  32  48 E8        30.15S
COPPER HARBOR    N/A     47  37  68 CALM      30.16F
IRONWOOD         N/A     48  34  57 N10       30.12S
$$

ABBREVIATIONS USED IN REMARKS
   TC - TEMPERATURE IN CELSIUS
  WCI - WIND CHILL INDEX
   HX - HEAT INDEX
  VSB - VISIBILITY





USA.gov is the U.S. government's official web portal to all federal, state and local government web resources and services.